sat.trackr.live / text

‹ back to catalog

HULIANWANG DIGUI-142

NORAD 67440 · 2026-007F

PAYLOAD ACTIVE UNKNOWN

§ Identity

Operator
Country
PRC
Launch date
2026-01-13
Launch site
WSC
Launch vehicle
Mass (kg)
RCS (m²)

External: N2YO · Heavens-Above · Gunter

§ Orbital elements

Epoch: 2026-09-20T22:01:28.701120Z

Period
108.33 min
Inclination
50.0108°
Eccentricity
0.0000396
Mean motion
13.29330544 rev/d
Perigee alt
1,149.0 km
Apogee alt
1,149.6 km
Semi-major
7,527.4 km
B*
5.8039e-5
RAAN
102.4783°
Arg perigee
32.3400°
Mean anomaly
327.7497°
Rev number
3,352

§ Raw data

HULIANWANG DIGUI-1421 67440U 26007F   26263.91769330 -.00000097  00000+0  58039-4 0  99982 67440  50.0108 102.4783 0000396  32.3400 327.7497 13.29330544 33528

JSON: /api/v1/satellites/67440 · /tle

For live sub-satellite position, see the globe view (requires WebGL).

§ Visibility from observer

Set your observer location to see the next 7 days of passes ≥ 10°. The values pass through the URL so the page stays shareable.

No JS? Fill the form by hand. The geolocation button needs JavaScript.